Overview Statistics Trail Chart Weather Telemetry Raw packets
 

This is the latest recevied weather packets stored in our database for station/object K9ZOG. If no packets are shown the sender has not sent any weather packets the latest 10 day(s).

<< 6 7 8 9 10 11 12 >>
Time Temp. Humidity Pressure Rain* Wind** Luminosity Snow
1788521187 21.67° C 98% 1016.3 hPa 23.11 mm - 0 W/m² -
1788520886 21.67° C 98% 1016.6 hPa 21.08 mm - 0 W/m² -
1788520585 21.67° C 97% 1017.2 hPa 19.05 mm - 0 W/m² -
1788520285 21.67° C 97% 1017.6 hPa 17.78 mm - 0 W/m² -
1788519986 21.67° C 97% 1018.2 hPa 17.27 mm - 0 W/m² -
1788519687 21.67° C 96% 1017.2 hPa 13.21 mm - 0 W/m² -
1788519407 22.22° C 96% 1016.2 hPa 9.65 mm - 0 W/m² -
1788519090 22.22° C 96% 1016.9 hPa 5.84 mm - 0 W/m² -
1788518786 22.22° C 96% 1015.8 hPa 2.54 mm - 0 W/m² -
1788518486 22.22° C 96% 1015 hPa 1.27 mm - 0 W/m² -
1788518186 22.22° C 96% 1014.9 hPa 1.02 mm - 0 W/m² -
1788517886 22.22° C 95% 1015.1 hPa 0.51 mm - 0 W/m² -
1788517586 22.22° C 96% 1015.2 hPa 0.25 mm - 0 W/m² -
1788517285 22.22° C 96% 1015.1 hPa 0 mm - 0 W/m² -
1788516986 22.22° C 96% 1014.8 hPa 0 mm - 0 W/m² -
1788516686 22.22° C 96% 1014.7 hPa 0 mm - 0 W/m² -
1788516386 22.22° C 96% 1014.5 hPa 0 mm - 0 W/m² -
1788516086 22.22° C 96% 1014.7 hPa 0 mm - 0 W/m² -
1788515785 22.22° C 95% 1014.5 hPa 0 mm - 0 W/m² -
1788515486 22.22° C 95% 1014.4 hPa 0 mm - 0 W/m² -
1788515187 22.22° C 95% 1014.4 hPa 0 mm - 0 W/m² -
1788514885 22.22° C 95% 1014.3 hPa 0.25 mm - 0 W/m² -
1788514586 22.22° C 95% 1014.2 hPa 0.25 mm - 0 W/m² -
1788514286 22.22° C 95% 1014.5 hPa 0.51 mm - 0 W/m² -
1788513986 22.22° C 95% 1014.6 hPa 0.51 mm - 0 W/m² -

* Rain latest hour (hover to see other rain measurements)
** Current wind speed in m/s (hover to see current wind gust speed)